Regional Weather Roundup
Issued by NWS

Home | Current Version | Previous Version | Graphics & Text | Print | Product List | Glossary On
Versions: 1 2 3 4 5 6 7 8 9 10 11 12 13 14 15 16 17 18 19 20 21 22 23 24 25 26 27 28 29 30 31 32 33 34 35 36 37 38 39 40 41 42 43 44 45 46 47 48 49 50
000
ASUS43 KBIS 231102
RWRND

NORTH DAKOTA REGIONAL WEATHER ROUNDUP
NATIONAL WEATHER SERVICE BISMARCK ND
600 AM CDT THU MAR 23 2017

NOTE: "FAIR" INDICATES FEW OR NO CLOUDS BELOW 12,000 FEET WITH NO
SIGNIFICANT WEATHER AND/OR OBSTRUCTIONS TO VISIBILITY.


NDZ001>003-009>011-017-231200-
NORTHWEST NORTH DAKOTA

CITY           SKY/WX    TMP DP  RH WIND       PRES   REMARKS
WILLISTON      FAIR      30  28  92 CALM      29.74F
MINOT          FAIR      33  28  81 S3        29.74F
MINOT AFB      CLOUDY    30  28  92 S5        29.74S
$$

NDZ018>021-031>035-040>046-231200-
SOUTHWEST NORTH DAKOTA

CITY           SKY/WX    TMP DP  RH WIND       PRES   REMARKS
BISMARCK       FAIR      33  28  81 CALM      29.82R
DICKINSON      CLOUDY    36  32  85 S5        29.75R
GARRISON         N/A     31  28  89 CALM      29.76S
HETTINGER ARPT CLOUDY    36  33  89 VRB3      29.72F
$$

NDZ004>008-012>016-024-026-027-054-231200-
NORTHEAST NORTH DAKOTA

CITY           SKY/WX    TMP DP  RH WIND       PRES   REMARKS
GRAND FORKS    CLOUDY    33  21  61 S15       29.88F
GRND FRKS AFB  CLOUDY    32  25  76 S15       29.88F
DEVILS LAKE    FAIR      30  26  85 S12       29.81F
$$

NDZ022-023-025-028>030-036>039-047>053-231200-
SOUTHEAST NORTH DAKOTA

CITY           SKY/WX    TMP DP  RH WIND       PRES   REMARKS
FARGO          CLOUDY    36  25  64 S24G31    29.91F
JAMESTOWN      FAIR      29  26  89 S8        29.82F
$$





USA.gov is the U.S. government's official web portal to all federal, state and local government web resources and services.